Location: Bonneuil
(46.1010°N, 2.9693°E)
Time: 13:02:49
(UTC+00:00)

ATLAS CENTAUR R/B - Visible Passes

Search period start: 06 August 2020 00:00
Search period end: 16 August 2020 00:00
Orbit: 475 x 672 km, 64.7° (Epoch: 13 July)

Date Brightness Start Highest point End Pass type
(mag) Time Alt. Az. Time Alt. Az. Time Alt. Az.
06 Aug 4.1 03:28:01 10° SE 03:29:35 12° ESE 03:31:07 10° E visible
07 Aug 3.7 03:29:11 10° SSE 03:32:03 18° ESE 03:34:49 10° ENE visible
08 Aug 3.1 03:31:01 10° S 03:34:33 27° ESE 03:37:56 10° ENE visible
09 Aug 2.4 03:33:10 10° S 03:37:06 40° ESE 03:40:50 10° NE visible
10 Aug 1.7 03:35:43 11° SSW 03:39:41 62° ESE 03:43:35 10° NE visible
11 Aug 4.0 02:02:56 10° SE 02:03:56 11° ESE 02:04:56 10° E visible
11 Aug 1.3 03:38:41 14° SW 03:42:17 86° WNW 03:46:14 10° NE visible
12 Aug 3.5 02:05:24 15° SE 02:06:23 17° ESE 02:08:58 10° ENE visible
12 Aug 1.5 03:41:35 15° SW 03:44:56 57° NW 03:48:49 10° NNE visible
13 Aug 2.9 02:08:14 23° SE 02:08:53 24° ESE 02:12:10 10° ENE visible
13 Aug 2.1 03:44:25 14° WSW 03:47:38 39° NW 03:51:19 10° NNE visible
14 Aug 2.2 02:11:01 36° SE 02:11:25 37° ESE 02:15:05 10° NE visible
14 Aug 2.6 03:47:13 12° W 03:50:22 28° NW 03:53:45 10° NNE visible
15 Aug 1.5 02:13:46 55° SE 02:14:00 56° ESE 02:17:52 10° NE visible
15 Aug 3.0 03:50:04 10° W 03:53:09 21° NW 03:56:08 10° N visible
